Location: Gudip?du
(17.0263°N, 80.8301°E)
Time: 12:38:57
(UTC+00:00)

ARIANE 5 R/B - Pass Details

Date: 03 August 2024
Orbit: 748 x 792 km, 98.8° (Epoch: 11 September)

Event Time Altitude Azimuth Distance (km) Brightness Sun altitude
Rises 23:13:16 0° 23° (NNE) 3,282 6.5 -15.2°
Reaches altitude 10° 23:15:42 10° 30° (NNE) 2,354 5.8 -14.6°
Maximum altitude 23:20:38 43° 101° (E) 1,100 3.8 -13.5°
Drops below altitude 10° 23:25:32 10° 172° (S) 2,347 4.9 -12.5°
Sets 23:27:57 0° 179° (S) 3,271 5.6 -11.9°
